SWR388M LSZH-LICJ

Flight info

Callsign SWR388M
Flight time 1h 42m
Altitude 37000
Route VEBIT T53 GERSA N850 ODINA DCT KALIK DCT GILIO DCT GIANO
Aircraft A320/M-SDE3FGHIRWY/LB1

Departure

Time 2026-04-26 20:02
Airport Zürich Airport (LSZH)

Arrival

Time 2026-04-26 21:45
Airport Falcone–Borsellino Airport (LICJ)
Time Latitude Longitude Altitude Speed Heading
2026-04-26 19:20 47.45336 8.55945 1411 ft 0 kts
2026-04-26 19:29 47.45325 8.56019 1412 ft 0 kts
2026-04-26 19:30 47.45397 8.56118 1413 ft 0 kts 186°
2026-04-26 19:30 47.45171 8.55938 1411 ft 0 kts 186°
2026-04-26 19:32 47.45325 8.56019 1411 ft 0 kts
2026-04-26 19:52 47.45312 8.56017 1414 ft 4 kts
2026-04-26 19:52 47.45287 8.56013 1410 ft 4 kts 12°
2026-04-26 19:52 47.45264 8.55998 1407 ft 4 kts 59°
2026-04-26 19:53 47.45258 8.55962 1413 ft 4 kts 101°
2026-04-26 19:53 47.45264 8.55932 1407 ft 3 kts 110°
2026-04-26 19:53 47.45271 8.55895 1407 ft 4 kts 89°
2026-04-26 19:53 47.45265 8.55861 1407 ft 4 kts 28°
2026-04-26 19:54 47.45256 8.55857 1414 ft 2 kts 276°
2026-04-26 19:54 47.45256 8.55859 1414 ft 0 kts 276°
2026-04-26 19:56 47.45256 8.55851 1414 ft 4 kts 275°
2026-04-26 19:56 47.45263 8.55749 1407 ft 13 kts 275°
2026-04-26 19:56 47.45272 8.55621 1406 ft 13 kts 281°
2026-04-26 19:57 47.45349 8.55525 1411 ft 19 kts 335°
2026-04-26 19:57 47.45477 8.55443 1410 ft 21 kts 331°
2026-04-26 19:57 47.45603 8.55353 1402 ft 11 kts 334°
2026-04-26 19:57 47.45668 8.55385 1403 ft 11 kts 75°
2026-04-26 19:58 47.45663 8.55520 1402 ft 15 kts 96°
2026-04-26 19:58 47.45650 8.55697 1405 ft 20 kts 97°
2026-04-26 19:58 47.45636 8.55895 1409 ft 19 kts 95°
2026-04-26 19:58 47.45623 8.56090 1411 ft 19 kts 96°
2026-04-26 19:59 47.45618 8.56240 1415 ft 10 kts 71°
2026-04-26 19:59 47.45678 8.56275 1413 ft 10 kts
2026-04-26 19:59 47.45760 8.56284 1415 ft 13 kts
2026-04-26 19:59 47.45864 8.56300 1414 ft 19 kts
2026-04-26 20:00 47.46004 8.56323 1415 ft 22 kts
2026-04-26 20:00 47.46150 8.56350 1411 ft 17 kts
2026-04-26 20:00 47.46207 8.56335 1410 ft 0 kts 321°
2026-04-26 20:01 47.46209 8.56333 1412 ft 3 kts 320°
2026-04-26 20:01 47.46351 8.56141 1404 ft 65 kts 317°
2026-04-26 20:01 47.46859 8.55456 1396 ft 129 kts 317°
2026-04-26 20:02 47.47636 8.54383 1505 ft 165 kts 318°
2026-04-26 20:02 47.48467 8.53267 2167 ft 165 kts 320°
2026-04-26 20:02 47.49342 8.52109 2754 ft 174 kts 324°
2026-04-26 20:02 47.50019 8.51402 2941 ft 187 kts 334°
2026-04-26 20:03 47.51653 8.50077 3338 ft 217 kts 335°
2026-04-26 20:03 47.52844 8.48599 3919 ft 231 kts 308°
2026-04-26 20:03 47.53477 8.46427 4660 ft 239 kts 281°
2026-04-26 20:03 47.53432 8.43976 5172 ft 241 kts 253°
2026-04-26 20:04 47.52752 8.41721 6022 ft 239 kts 243°
2026-04-26 20:04 47.51872 8.39638 6826 ft 240 kts 225°
2026-04-26 20:04 47.50458 8.38286 7371 ft 253 kts 197°
2026-04-26 20:04 47.48660 8.37695 7734 ft 276 kts 191°
2026-04-26 20:05 47.46741 8.37121 8402 ft 284 kts 192°
2026-04-26 20:05 47.44790 8.36511 9240 ft 288 kts 193°
2026-04-26 20:05 47.42825 8.35882 10101 ft 291 kts 194°
2026-04-26 20:05 47.40886 8.34937 10509 ft 308 kts 207°
2026-04-26 20:06 47.39063 8.33129 10846 ft 324 kts 224°
2026-04-26 20:06 47.37592 8.30578 11509 ft 328 kts 239°
2026-04-26 20:06 47.36491 8.27613 12253 ft 331 kts 244°
2026-04-26 20:06 47.35415 8.24595 13021 ft 334 kts 243°
2026-04-26 20:07 47.34328 8.21554 13772 ft 337 kts 244°
2026-04-26 20:07 47.33232 8.18485 14446 ft 340 kts 244°
2026-04-26 20:07 47.32123 8.15380 15097 ft 344 kts 244°
2026-04-26 20:07 47.31000 8.12248 15738 ft 348 kts 242°
2026-04-26 20:08 47.29447 8.09483 16327 ft 357 kts 219°
2026-04-26 20:08 47.27169 8.07947 16919 ft 368 kts 193°
2026-04-26 20:08 47.24626 8.07991 17495 ft 377 kts 167°
2026-04-26 20:08 47.22246 8.09648 18073 ft 384 kts 141°
2026-04-26 20:09 47.20520 8.12644 18620 ft 388 kts 116°
2026-04-26 20:09 47.19779 8.16432 19118 ft 388 kts 91°
2026-04-26 20:09 47.20117 8.20343 19625 ft 387 kts 72°
2026-04-26 20:09 47.20829 8.24181 20175 ft 390 kts 72°
2026-04-26 20:10 47.21548 8.28044 20716 ft 393 kts 72°
2026-04-26 20:10 47.22274 8.31932 21261 ft 396 kts 71°
2026-04-26 20:10 47.23053 8.35834 21792 ft 399 kts 72°
2026-04-26 20:10 47.23604 8.39869 22307 ft 407 kts 84°
2026-04-26 20:11 47.23222 8.44032 22806 ft 416 kts 108°
2026-04-26 20:11 47.21785 8.47679 23292 ft 423 kts 132°
2026-04-26 20:11 47.19454 8.50340 23756 ft 425 kts 155°
2026-04-26 20:12 47.13664 8.51602 24579 ft 424 kts 184°
2026-04-26 20:12 47.10734 8.51629 25007 ft 428 kts 180°
2026-04-26 20:12 47.07756 8.51992 25449 ft 431 kts 175°
2026-04-26 20:12 47.04776 8.52593 25870 ft 434 kts 173°
2026-04-26 20:13 47.01778 8.53267 26287 ft 436 kts 173°
2026-04-26 20:13 46.98765 8.53909 26683 ft 438 kts 174°
2026-04-26 20:13 46.95732 8.54473 27080 ft 439 kts 175°
2026-04-26 20:13 46.92684 8.54957 27475 ft 441 kts 176°
2026-04-26 20:14 46.89615 8.55384 27811 ft 443 kts 176°
2026-04-26 20:14 46.86569 8.55780 28186 ft 445 kts 176°
2026-04-26 20:14 46.83477 8.56179 28565 ft 446 kts 176°
2026-04-26 20:14 46.80370 8.56591 28929 ft 448 kts 176°
2026-04-26 20:15 46.77256 8.57023 29259 ft 450 kts 176°
2026-04-26 20:15 46.74125 8.57475 29588 ft 453 kts 176°
2026-04-26 20:15 46.70980 8.57937 29921 ft 454 kts 176°
2026-04-26 20:15 46.67861 8.58396 30224 ft 456 kts 176°
2026-04-26 20:16 46.64690 8.58852 30505 ft 458 kts 176°
2026-04-26 20:16 46.61513 8.59304 30785 ft 460 kts 176°
2026-04-26 20:16 46.58327 8.59756 31058 ft 461 kts 176°
2026-04-26 20:16 46.55133 8.60212 31330 ft 462 kts 176°
2026-04-26 20:17 46.51931 8.60670 31560 ft 463 kts 176°
2026-04-26 20:17 46.48728 8.61127 31871 ft 462 kts 176°
2026-04-26 20:17 46.45527 8.61577 32239 ft 460 kts 176°
2026-04-26 20:17 46.43417 8.61871 32466 ft 459 kts 176°
2026-04-26 20:18 46.39162 8.62460 32923 ft 458 kts 176°
2026-04-26 20:18 46.35986 8.62896 33276 ft 456 kts 176°
2026-04-26 20:18 46.32832 8.63336 33651 ft 455 kts 176°
2026-04-26 20:18 46.29682 8.63782 34003 ft 454 kts 176°
2026-04-26 20:19 46.26587 8.64220 34315 ft 452 kts 176°
2026-04-26 20:19 46.23457 8.64669 34583 ft 451 kts 176°
2026-04-26 20:19 46.20327 8.65118 34805 ft 451 kts 176°
2026-04-26 20:19 46.17213 8.65560 35055 ft 450 kts 176°
2026-04-26 20:20 46.14094 8.66003 35316 ft 450 kts 175°
2026-04-26 20:20 46.11015 8.66825 35566 ft 452 kts 166°
2026-04-26 20:20 46.08042 8.68329 35737 ft 454 kts 157°
2026-04-26 20:20 46.05230 8.70390 35966 ft 455 kts 154°
2026-04-26 20:21 46.02425 8.72499 36179 ft 454 kts 154°
2026-04-26 20:21 45.99619 8.74591 36402 ft 454 kts 154°
2026-04-26 20:21 45.96811 8.76672 36618 ft 454 kts 154°
2026-04-26 20:21 45.93999 8.78746 36819 ft 454 kts 154°
2026-04-26 20:22 45.91191 8.80818 37038 ft 454 kts 154°
2026-04-26 20:22 45.85590 8.84961 37130 ft 451 kts 154°
2026-04-26 20:23 45.80008 8.89094 37124 ft 450 kts 155°
2026-04-26 20:23 45.74477 8.93176 37107 ft 449 kts 155°
2026-04-26 20:24 45.68908 8.97265 37108 ft 449 kts 155°
2026-04-26 20:24 45.63345 9.01353 37103 ft 449 kts 155°
2026-04-26 20:25 45.57768 9.05428 37107 ft 449 kts 155°
2026-04-26 20:25 45.52233 9.09472 37111 ft 449 kts 155°
2026-04-26 20:26 45.46655 9.13537 37116 ft 449 kts 155°
2026-04-26 20:26 45.41085 9.17596 37116 ft 449 kts 155°
2026-04-26 20:27 45.35522 9.21636 37114 ft 449 kts 155°
2026-04-26 20:27 45.29959 9.25661 37106 ft 448 kts 155°
2026-04-26 20:28 45.24421 9.29656 37098 ft 448 kts 155°
2026-04-26 20:28 45.18854 9.33670 37091 ft 448 kts 155°
2026-04-26 20:29 45.13316 9.37655 37089 ft 448 kts 155°
2026-04-26 20:29 45.07749 9.41651 37084 ft 448 kts 155°
2026-04-26 20:30 45.03120 9.44967 37085 ft 448 kts 155°
2026-04-26 20:30 44.97536 9.48961 37086 ft 448 kts 155°
2026-04-26 20:31 44.91963 9.52930 37096 ft 448 kts 155°
2026-04-26 20:31 44.86428 9.56867 37102 ft 448 kts 155°
2026-04-26 20:32 44.80849 9.60834 37104 ft 448 kts 156°
2026-04-26 20:32 44.75275 9.64781 37119 ft 448 kts 156°
2026-04-26 20:33 44.69702 9.68715 37128 ft 447 kts 155°
2026-04-26 20:33 44.64188 9.72608 37134 ft 447 kts 156°
2026-04-26 20:34 44.58639 9.76523 37153 ft 446 kts 155°
2026-04-26 20:34 44.53091 9.80424 37159 ft 446 kts 156°
2026-04-26 20:35 44.47533 9.84304 37160 ft 445 kts 157°
2026-04-26 20:35 44.41787 9.87489 37164 ft 443 kts 161°
2026-04-26 20:36 44.36024 9.90560 37168 ft 443 kts 161°
2026-04-26 20:36 44.30263 9.93616 37173 ft 443 kts 162°
2026-04-26 20:37 44.24527 9.96634 37170 ft 442 kts 162°
2026-04-26 20:37 44.18757 9.99676 37170 ft 442 kts 162°
2026-04-26 20:38 44.12997 10.02720 37168 ft 442 kts 162°
2026-04-26 20:38 44.07265 10.05740 37167 ft 442 kts 162°
2026-04-26 20:39 44.01498 10.08759 37159 ft 442 kts 162°
2026-04-26 20:39 43.95733 10.11766 37164 ft 442 kts 162°
2026-04-26 20:40 43.89967 10.14776 37168 ft 442 kts 162°
2026-04-26 20:40 43.84242 10.17761 37180 ft 442 kts 162°
2026-04-26 20:41 43.78477 10.20762 37184 ft 442 kts 162°
2026-04-26 20:41 43.72718 10.23752 37183 ft 442 kts 162°
2026-04-26 20:42 43.66949 10.26730 37188 ft 442 kts 162°
2026-04-26 20:42 43.61178 10.29709 37186 ft 443 kts 162°
2026-04-26 20:43 43.55414 10.32689 37181 ft 443 kts 162°
2026-04-26 20:43 43.49645 10.35654 37179 ft 443 kts 162°
2026-04-26 20:44 43.43875 10.38620 37176 ft 443 kts 162°
2026-04-26 20:44 43.38102 10.41586 37167 ft 443 kts 162°
2026-04-26 20:45 43.32372 10.44507 37164 ft 443 kts 162°
2026-04-26 20:45 43.26595 10.47459 37164 ft 443 kts 162°
2026-04-26 20:46 43.20812 10.50405 37164 ft 443 kts 162°
2026-04-26 20:46 43.15014 10.53347 37163 ft 443 kts 162°
2026-04-26 20:47 43.09258 10.56271 37162 ft 443 kts 162°
2026-04-26 20:47 43.03458 10.59217 37161 ft 443 kts 162°
2026-04-26 20:48 42.97663 10.62138 37159 ft 443 kts 162°
2026-04-26 20:48 42.91901 10.65041 37160 ft 443 kts 162°
2026-04-26 20:49 42.86104 10.67959 37156 ft 443 kts 162°
2026-04-26 20:49 42.80303 10.70880 37153 ft 443 kts 162°
2026-04-26 20:50 42.74504 10.73785 37154 ft 443 kts 162°
2026-04-26 20:50 42.68743 10.76658 37151 ft 443 kts 162°
2026-04-26 20:51 42.62944 10.79557 37149 ft 443 kts 162°
2026-04-26 20:51 42.57138 10.82461 37156 ft 443 kts 162°
2026-04-26 20:52 42.51374 10.85332 37158 ft 443 kts 162°
2026-04-26 20:52 42.45573 10.88209 37166 ft 443 kts 162°
2026-04-26 20:53 42.39767 10.91075 37163 ft 443 kts 162°
2026-04-26 20:53 42.33948 10.93916 37164 ft 443 kts 163°
2026-04-26 20:54 42.28143 10.96585 37171 ft 443 kts 164°
2026-04-26 20:54 42.22280 10.99221 37168 ft 443 kts 164°
2026-04-26 20:55 42.16466 11.01856 37166 ft 443 kts 164°
2026-04-26 20:55 42.10624 11.04531 37172 ft 443 kts 163°
2026-04-26 20:56 42.04788 11.07203 37165 ft 443 kts 164°
2026-04-26 20:56 41.98936 11.09860 37166 ft 443 kts 164°
2026-04-26 20:57 41.93126 11.12502 37169 ft 443 kts 164°
2026-04-26 20:57 41.87275 11.15149 37169 ft 443 kts 164°
2026-04-26 20:58 41.81433 11.17781 37167 ft 443 kts 164°
2026-04-26 20:58 41.75590 11.20418 37168 ft 443 kts 163°
2026-04-26 20:59 41.69789 11.23031 37172 ft 443 kts 163°
2026-04-26 20:59 41.63952 11.25703 37173 ft 443 kts 163°
2026-04-26 21:00 41.58119 11.28338 37173 ft 442 kts 164°
2026-04-26 21:00 41.52269 11.30906 37180 ft 442 kts 164°
2026-04-26 21:01 41.46416 11.33490 37178 ft 442 kts 163°
2026-04-26 21:01 41.40577 11.36100 37178 ft 442 kts 163°
2026-04-26 21:02 41.34781 11.38694 37178 ft 441 kts 163°
2026-04-26 21:02 41.28935 11.41302 37179 ft 441 kts 163°
2026-04-26 21:03 41.23145 11.43872 37184 ft 441 kts 163°
2026-04-26 21:03 41.17319 11.46445 37183 ft 440 kts 163°
2026-04-26 21:04 41.11501 11.49014 37185 ft 440 kts 163°
2026-04-26 21:04 41.05687 11.51578 37184 ft 440 kts 164°
2026-04-26 21:05 40.99875 11.54130 37179 ft 440 kts 163°
2026-04-26 21:05 40.94100 11.56665 37184 ft 439 kts 163°
2026-04-26 21:06 40.88286 11.59220 37182 ft 439 kts 163°
2026-04-26 21:06 40.82514 11.61757 37182 ft 439 kts 163°
2026-04-26 21:07 40.76710 11.64287 37178 ft 439 kts 164°
2026-04-26 21:07 40.70891 11.66819 37179 ft 439 kts 163°
2026-04-26 21:08 40.65095 11.69352 37179 ft 439 kts 163°
2026-04-26 21:08 40.59292 11.71882 37177 ft 439 kts 164°
2026-04-26 21:09 40.53491 11.74394 37180 ft 438 kts 164°
2026-04-26 21:09 40.47727 11.76875 37178 ft 438 kts 164°
2026-04-26 21:10 40.41931 11.79373 37177 ft 438 kts 163°
2026-04-26 21:10 40.36133 11.81889 37179 ft 438 kts 163°
2026-04-26 21:11 40.30336 11.84387 37180 ft 438 kts 164°
2026-04-26 21:11 40.24551 11.86865 37179 ft 437 kts 164°
2026-04-26 21:12 40.18798 11.89328 37181 ft 437 kts 164°
2026-04-26 21:12 40.13023 11.91806 37180 ft 437 kts 164°
2026-04-26 21:13 40.07241 11.94283 37178 ft 437 kts 164°
2026-04-26 21:13 40.01455 11.96750 37180 ft 437 kts 164°
2026-04-26 21:14 39.95671 11.99211 37181 ft 437 kts 164°
2026-04-26 21:14 39.89896 12.01666 37179 ft 437 kts 164°
2026-04-26 21:15 39.84115 12.04126 37177 ft 437 kts 164°
2026-04-26 21:15 39.82193 12.04944 36935 ft 439 kts 164°
2026-04-26 21:15 39.79271 12.06185 35671 ft 444 kts 164°
2026-04-26 21:15 39.76373 12.07411 35221 ft 428 kts 164°
2026-04-26 21:16 39.73580 12.08596 35030 ft 417 kts 164°
2026-04-26 21:16 39.70827 12.09765 34526 ft 416 kts 164°
2026-04-26 21:16 39.68068 12.10930 34002 ft 415 kts 164°
2026-04-26 21:16 39.65328 12.12080 33486 ft 412 kts 163°
2026-04-26 21:17 39.62606 12.13218 32991 ft 410 kts 163°
2026-04-26 21:17 39.59934 12.14337 32508 ft 407 kts 163°
2026-04-26 21:17 39.57247 12.15466 32015 ft 405 kts 163°
2026-04-26 21:17 39.54532 12.16610 31540 ft 403 kts 163°
2026-04-26 21:18 39.51874 12.17734 31060 ft 401 kts 162°
2026-04-26 21:18 39.49263 12.18840 30601 ft 399 kts 162°
2026-04-26 21:18 39.46631 12.19946 30134 ft 397 kts 162°
2026-04-26 21:18 39.44008 12.21045 29662 ft 394 kts 162°
2026-04-26 21:19 39.41410 12.22132 29223 ft 390 kts 162°
2026-04-26 21:19 39.38837 12.23205 28791 ft 386 kts 162°
2026-04-26 21:19 39.36289 12.24268 28380 ft 383 kts 162°
2026-04-26 21:19 39.33767 12.25322 27960 ft 379 kts 162°
2026-04-26 21:20 39.31267 12.26365 27533 ft 376 kts 162°
2026-04-26 21:20 39.28788 12.27401 27112 ft 373 kts 162°
2026-04-26 21:20 39.26326 12.28427 26671 ft 371 kts 162°
2026-04-26 21:20 39.23880 12.29444 26237 ft 368 kts 162°
2026-04-26 21:21 39.21446 12.30456 25792 ft 367 kts 162°
2026-04-26 21:21 39.19023 12.31461 25341 ft 365 kts 162°
2026-04-26 21:21 39.16611 12.32460 24886 ft 364 kts 162°
2026-04-26 21:21 39.14202 12.33458 24418 ft 363 kts 162°
2026-04-26 21:22 39.11797 12.34454 23945 ft 363 kts 161°
2026-04-26 21:22 39.09396 12.35456 23442 ft 363 kts 161°
2026-04-26 21:22 39.07005 12.36452 22961 ft 360 kts 161°
2026-04-26 21:23 39.02262 12.38419 22059 ft 356 kts 161°
2026-04-26 21:23 38.99911 12.39387 21622 ft 354 kts 161°
2026-04-26 21:23 38.97568 12.40352 21182 ft 352 kts 161°
2026-04-26 21:23 38.95239 12.41314 20747 ft 351 kts 161°
2026-04-26 21:24 38.92918 12.42274 20310 ft 350 kts 161°
2026-04-26 21:24 38.90607 12.43231 19874 ft 349 kts 161°
2026-04-26 21:24 38.88298 12.44183 19451 ft 348 kts 161°
2026-04-26 21:24 38.86036 12.45267 19005 ft 347 kts 154°
2026-04-26 21:25 38.83845 12.46583 18509 ft 349 kts 154°
2026-04-26 21:25 38.81645 12.47907 17964 ft 350 kts 154°
2026-04-26 21:25 38.79445 12.49234 17478 ft 349 kts 154°
2026-04-26 21:25 38.77250 12.50562 16991 ft 349 kts 154°
2026-04-26 21:26 38.75066 12.51878 16604 ft 345 kts 154°
2026-04-26 21:26 38.72888 12.53188 16169 ft 344 kts 155°
2026-04-26 21:26 38.70735 12.54481 15790 ft 341 kts 155°
2026-04-26 21:26 38.68589 12.55767 15376 ft 340 kts 155°
2026-04-26 21:27 38.66455 12.57047 14971 ft 338 kts 155°
2026-04-26 21:27 38.64326 12.58321 14574 ft 337 kts 155°
2026-04-26 21:27 38.62207 12.59585 14156 ft 333 kts 156°
2026-04-26 21:27 38.60142 12.60822 13400 ft 330 kts 156°
2026-04-26 21:28 38.58044 12.62081 12676 ft 326 kts 156°
2026-04-26 21:28 38.56031 12.63287 12212 ft 314 kts 156°
2026-04-26 21:28 38.54095 12.64445 11785 ft 310 kts 156°
2026-04-26 21:28 38.52134 12.65617 11343 ft 311 kts 156°
2026-04-26 21:29 38.50169 12.66788 10900 ft 312 kts 156°
2026-04-26 21:29 38.48200 12.67962 10464 ft 312 kts 156°
2026-04-26 21:29 38.46268 12.69108 10236 ft 300 kts 156°
2026-04-26 21:29 38.44377 12.70230 10147 ft 300 kts 156°
2026-04-26 21:30 38.42526 12.71332 9975 ft 284 kts 156°
2026-04-26 21:30 38.40784 12.72371 9527 ft 276 kts 156°
2026-04-26 21:30 38.39066 12.73396 9166 ft 271 kts 155°
2026-04-26 21:30 38.37365 12.74415 8781 ft 269 kts 154°
2026-04-26 21:31 38.35890 12.75845 8415 ft 266 kts 128°
2026-04-26 21:31 38.35093 12.77940 8064 ft 263 kts 99°
2026-04-26 21:31 38.35126 12.80217 7967 ft 262 kts 74°
2026-04-26 21:31 38.35781 12.82383 7832 ft 262 kts 66°
2026-04-26 21:32 38.36502 12.84520 7697 ft 261 kts 66°
2026-04-26 21:32 38.37226 12.86653 7555 ft 261 kts 66°
2026-04-26 21:32 38.37937 12.88745 7420 ft 260 kts 66°
2026-04-26 21:32 38.38657 12.90869 7281 ft 259 kts 66°
2026-04-26 21:33 38.39337 12.92962 7139 ft 250 kts 73°
2026-04-26 21:33 38.39390 12.95093 7037 ft 237 kts 107°
2026-04-26 21:33 38.38572 12.96862 6920 ft 233 kts 139°
2026-04-26 21:33 38.37198 12.97887 6791 ft 233 kts 156°
2026-04-26 21:34 38.35722 12.98742 6666 ft 233 kts 155°
2026-04-26 21:34 38.34250 12.99609 6530 ft 232 kts 155°
2026-04-26 21:34 38.32713 13.00131 6395 ft 227 kts 182°
2026-04-26 21:34 38.31250 12.99593 6270 ft 216 kts 214°
2026-04-26 21:35 38.30255 12.98245 6160 ft 208 kts 244°
2026-04-26 21:35 38.29675 12.96557 6062 ft 208 kts 247°
2026-04-26 21:35 38.29110 12.94863 5946 ft 208 kts 247°
2026-04-26 21:35 38.28543 12.93174 5842 ft 207 kts 247°
2026-04-26 21:36 38.27976 12.91485 5729 ft 207 kts 247°
2026-04-26 21:36 38.27601 12.90371 5657 ft 207 kts 247°
2026-04-26 21:36 38.26839 12.88117 5412 ft 206 kts 246°
2026-04-26 21:36 38.26271 12.86441 5274 ft 206 kts 246°
2026-04-26 21:37 38.25699 12.84798 5155 ft 205 kts 241°
2026-04-26 21:37 38.24749 12.83472 5024 ft 204 kts 210°
2026-04-26 21:37 38.23410 12.82944 4830 ft 204 kts 180°
2026-04-26 21:37 38.22048 12.83322 4574 ft 199 kts 156°
2026-04-26 21:38 38.20781 12.84008 4271 ft 195 kts 156°
2026-04-26 21:38 38.19547 12.84679 4028 ft 190 kts 156°
2026-04-26 21:38 38.18339 12.85334 3791 ft 186 kts 156°
2026-04-26 21:38 38.17179 12.85962 3566 ft 182 kts 156°
2026-04-26 21:39 38.16029 12.86584 3339 ft 177 kts 155°
2026-04-26 21:39 38.14908 12.87188 3159 ft 170 kts 155°
2026-04-26 21:39 38.13860 12.87753 3100 ft 157 kts 155°
2026-04-26 21:39 38.12878 12.88283 3036 ft 150 kts 155°
2026-04-26 21:40 38.12030 12.88975 2962 ft 145 kts 130°
2026-04-26 21:40 38.11560 12.90088 2911 ft 144 kts 101°
2026-04-26 21:40 38.11588 12.91341 2745 ft 143 kts 72°
2026-04-26 21:40 38.11973 12.92498 2560 ft 141 kts 67°
2026-04-26 21:41 38.12362 12.93637 2359 ft 140 kts 67°
2026-04-26 21:41 38.12747 12.94766 2286 ft 139 kts 68°
2026-04-26 21:41 38.13127 12.95894 2270 ft 138 kts 68°
2026-04-26 21:41 38.13508 12.97013 2314 ft 138 kts 68°
2026-04-26 21:42 38.13892 12.98139 2074 ft 139 kts 67°
2026-04-26 21:42 38.14285 12.99270 1678 ft 141 kts 67°
2026-04-26 21:42 38.14664 13.00393 1473 ft 135 kts 68°
2026-04-26 21:42 38.15035 13.01497 1281 ft 136 kts 68°
2026-04-26 21:43 38.15407 13.02592 1020 ft 133 kts 68°
2026-04-26 21:43 38.15775 13.03681 849 ft 135 kts 67°
2026-04-26 21:43 38.16146 13.04787 683 ft 136 kts 68°
2026-04-26 21:43 38.16509 13.05903 591 ft 138 kts 69°
2026-04-26 21:44 38.16878 13.07007 371 ft 135 kts 68°
2026-04-26 21:44 38.17253 13.08126 199 ft 137 kts 69°
2026-04-26 21:44 38.17627 13.09235 51 ft 134 kts 70°
2026-04-26 21:44 38.17917 13.10100 46 ft 66 kts 66°
2026-04-26 21:45 38.17997 13.10310 47 ft 1 kts
2026-04-26 21:45 38.18013 13.10266 47 ft 8 kts 280°
2026-04-26 21:45 38.18023 13.10173 47 ft 10 kts 275°
2026-04-26 21:45 38.18029 13.10089 48 ft 9 kts 276°
2026-04-26 21:46 38.18046 13.09998 44 ft 11 kts 311°
2026-04-26 21:46 38.18119 13.10076 44 ft 24 kts 68°
2026-04-26 21:46 38.18187 13.10282 48 ft 18 kts 68°
2026-04-26 21:46 38.18260 13.10362 49 ft 14 kts
2026-04-26 21:47 38.18319 13.10439 49 ft 12 kts 63°
2026-04-26 21:47 38.18376 13.10498 50 ft 10 kts 30°
2026-04-26 21:47 38.18436 13.10532 46 ft 9 kts 40°
2026-04-26 21:47 38.18462 13.10593 50 ft 8 kts 67°
2026-04-26 21:48 38.18488 13.10673 50 ft 9 kts 67°
2026-04-26 21:48 38.18512 13.10694 51 ft 3 kts 342°
2026-04-26 21:48 38.18536 13.10680 50 ft 4 kts 333°
2026-04-26 21:48 38.18552 13.10671 47 ft 2 kts 338°
2026-04-26 21:49 38.18555 13.10669 48 ft 0 kts 338°